Location: Gleizolles
(44.4833°N, 6.7667°E)
Time: 22:03:30
(UTC+00:00)

A-11 Canister half - Pass Details

Date: 26 June 2024
Orbit: 1524 x 1684 km, 47.3° (Epoch: 18 July)

Event Time Altitude Azimuth Distance (km) Brightness Sun altitude
Rises 18:26:13 0° 293° (WNW) 4,677 14.2 7.8°
Reaches altitude 10° 18:29:41 10° 283° (WNW) 3,691 13.2 7.2°
Maximum altitude 18:37:21 30° 227° (SW) 2,463 10.4 6.0°
Drops below altitude 10° 18:45:07 10° 170° (S) 3,725 10.7 4.8°
Sets 18:48:40 0° 161° (SSE) 4,726 11.1 4.2°
